Time,TemperatureF,DewpointF,PressureIn,WindDirection,WindDirectionDegrees,WindSpeedMPH,WindSpeedGustMPH,Humidity,HourlyPrecipIn,Conditions,Clouds,dailyrainin,SolarRadiationWatts/m^2,SoftwareType,DateUTC
2013-04-11 00:02:00,47.0,11.0,-100.00,North,2,3.0,6.0,23,0.00,,,0.00,2.000000,,2013-04-11 07:02:00,
2013-04-11 00:12:00,47.0,11.0,-100.00,North,2,3.0,6.0,23,0.00,,,0.00,2.000000,,2013-04-11 07:12:00,
2013-04-11 00:43:00,45.0,11.0,-100.00,North,2,2.0,4.0,25,0.00,,,-99.99,2.000000,,2013-04-11 07:43:00,
2013-04-11 00:52:00,45.0,11.0,-100.00,North,2,2.0,4.0,25,0.00,,,-99.99,2.000000,,2013-04-11 07:52:00,
2013-04-11 01:02:00,45.0,11.0,-100.00,North,2,2.0,4.0,25,0.00,,,-99.99,2.000000,,2013-04-11 08:02:00,
2013-04-11 01:12:00,45.0,11.0,-100.00,North,2,2.0,4.0,25,0.00,,,-99.99,2.000000,,2013-04-11 08:12:00,
2013-04-11 01:43:00,47.0,11.0,-100.00,North,3,4.0,6.0,23,0.00,,,0.00,2.000000,,2013-04-11 08:43:00,
2013-04-11 01:52:00,47.0,11.0,-100.00,North,3,4.0,6.0,23,0.00,,,0.00,2.000000,,2013-04-11 08:52:00,
2013-04-11 02:02:00,47.0,11.0,-100.00,North,3,4.0,6.0,23,0.00,,,0.00,2.000000,,2013-04-11 09:02:00,
2013-04-11 02:12:00,47.0,11.0,-100.00,North,3,4.0,6.0,23,0.00,,,0.00,2.000000,,2013-04-11 09:12:00,
2013-04-11 04:43:00,49.0,12.0,-100.00,North,2,7.0,10.0,22,-99.99,,,-99.99,2.000000,,2013-04-11 11:43:00,
2013-04-11 05:12:00,49.0,12.0,-100.00,North,2,7.0,10.0,22,-99.99,,,-99.99,2.000000,,2013-04-11 12:12:00,
2013-04-11 05:43:00,50.0,16.0,-100.00,North,2,4.0,10.0,26,-99.99,,,-99.99,2.000000,,2013-04-11 12:43:00,
2013-04-11 06:43:00,50.0,16.0,-100.00,North,2,5.0,10.0,26,-99.99,,,0.00,2.000000,,2013-04-11 13:43:00,
2013-04-11 07:42:00,51.0,16.0,-100.00,North,2,5.0,10.0,24,-99.99,,,0.00,32.000000,,2013-04-11 14:42:00,
2013-04-11 07:52:00,51.0,16.0,-100.00,North,2,5.0,10.0,24,-99.99,,,0.00,32.000000,,2013-04-11 14:52:00,
2013-04-11 08:12:00,51.0,16.0,-100.00,North,2,5.0,10.0,24,-99.99,,,0.00,32.000000,,2013-04-11 15:12:00,
2013-04-11 10:43:00,54.0,22.0,-100.00,North,1,7.0,10.0,29,-99.99,,,0.00,748.000000,,2013-04-11 17:43:00,
2013-04-11 10:53:00,54.0,22.0,-100.00,North,1,7.0,10.0,29,-99.99,,,0.00,748.000000,,2013-04-11 17:53:00,
2013-04-11 11:02:00,54.0,22.0,-100.00,North,1,7.0,10.0,29,-99.99,,,0.00,748.000000,,2013-04-11 18:02:00,
2013-04-11 11:12:00,54.0,22.0,-100.00,North,1,7.0,10.0,29,-99.99,,,0.00,748.000000,,2013-04-11 18:12:00,
2013-04-11 11:43:00,55.0,26.0,-100.00,North,1,10.0,14.0,32,0.00,,,0.00,929.000000,,2013-04-11 18:43:00,
2013-04-11 11:53:00,55.0,26.0,-100.00,North,1,10.0,14.0,32,0.00,,,0.00,929.000000,,2013-04-11 18:53:00,
2013-04-11 12:03:00,55.0,26.0,-100.00,North,1,10.0,14.0,32,0.00,,,0.00,929.000000,,2013-04-11 19:03:00,
2013-04-11 12:13:00,55.0,26.0,-100.00,North,1,10.0,14.0,32,0.00,,,0.00,929.000000,,2013-04-11 19:13:00,
2013-04-11 12:43:00,56.0,26.0,-100.00,North,1,12.0,19.0,31,0.00,,,0.00,1045.000000,,2013-04-11 19:43:00,
2013-04-11 12:53:00,56.0,26.0,-100.00,North,1,12.0,19.0,31,0.00,,,0.00,1045.000000,,2013-04-11 19:53:00,
2013-04-11 13:02:00,56.0,26.0,-100.00,North,1,12.0,19.0,31,0.00,,,0.00,1045.000000,,2013-04-11 20:02:00,
2013-04-11 13:12:00,56.0,26.0,-100.00,North,1,12.0,19.0,31,0.00,,,0.00,1045.000000,,2013-04-11 20:12:00,
2013-04-11 13:43:00,58.0,27.0,-100.00,North,1,12.0,17.0,30,0.00,,,0.00,1132.000000,,2013-04-11 20:43:00,
2013-04-11 13:52:00,58.0,27.0,-100.00,North,1,12.0,17.0,30,0.00,,,0.00,1132.000000,,2013-04-11 20:52:00,
2013-04-11 14:02:00,58.0,27.0,-100.00,North,1,12.0,17.0,30,0.00,,,0.00,1132.000000,,2013-04-11 21:02:00,
2013-04-11 14:11:00,58.0,27.0,-100.00,North,1,12.0,17.0,30,0.00,,,0.00,1132.000000,,2013-04-11 21:11:00,
2013-04-11 14:43:00,58.0,28.0,-100.00,North,1,10.0,19.0,32,0.00,,,0.00,1075.000000,,2013-04-11 21:43:00,
2013-04-11 14:53:00,58.0,28.0,-100.00,North,1,10.0,19.0,32,0.00,,,0.00,1075.000000,,2013-04-11 21:53:00,
2013-04-11 15:02:00,58.0,28.0,-100.00,North,1,10.0,19.0,32,0.00,,,0.00,1075.000000,,2013-04-11 22:02:00,
2013-04-11 15:13:00,58.0,28.0,-100.00,North,1,10.0,19.0,32,0.00,,,0.00,1075.000000,,2013-04-11 22:13:00,
2013-04-11 15:33:00,58.0,28.0,-100.00,North,1,11.0,18.0,31,0.00,,,0.00,982.000000,,2013-04-11 22:33:00,
2013-04-11 15:44:00,58.0,28.0,-100.00,North,1,11.0,18.0,31,0.00,,,0.00,982.000000,,2013-04-11 22:44:00,
2013-04-11 15:53:00,58.0,28.0,-100.00,North,1,11.0,18.0,31,0.00,,,0.00,982.000000,,2013-04-11 22:53:00,
2013-04-11 16:03:00,58.0,28.0,-100.00,North,1,11.0,18.0,31,0.00,,,0.00,982.000000,,2013-04-11 23:03:00,
2013-04-11 16:12:00,58.0,28.0,-100.00,North,1,11.0,18.0,31,0.00,,,0.00,982.000000,,2013-04-11 23:12:00,
2013-04-11 16:33:00,57.0,26.0,-100.00,North,1,12.0,19.0,30,0.00,,,0.00,805.000000,,2013-04-11 23:33:00,
2013-04-11 16:43:00,57.0,26.0,-100.00,North,1,12.0,19.0,30,0.00,,,0.00,805.000000,,2013-04-11 23:43:00,
2013-04-11 16:53:00,57.0,26.0,-100.00,North,1,12.0,19.0,30,0.00,,,0.00,805.000000,,2013-04-11 23:53:00,
2013-04-11 17:02:00,57.0,26.0,-100.00,North,1,12.0,19.0,30,0.00,,,0.00,805.000000,,2013-04-12 00:02:00,
2013-04-11 17:11:00,57.0,26.0,-100.00,North,1,12.0,19.0,30,0.00,,,0.00,805.000000,,2013-04-12 00:11:00,
2013-04-11 17:43:00,55.0,26.0,-100.00,North,1,10.0,17.0,32,0.00,,,0.00,547.000000,,2013-04-12 00:43:00,
2013-04-11 17:53:00,55.0,26.0,-100.00,North,1,10.0,17.0,32,0.00,,,0.00,547.000000,,2013-04-12 00:53:00,
2013-04-11 18:02:00,55.0,26.0,-100.00,North,1,10.0,17.0,32,0.00,,,0.00,547.000000,,2013-04-12 01:02:00,
2013-04-11 18:12:00,55.0,26.0,-100.00,North,1,10.0,17.0,32,0.00,,,0.00,547.000000,,2013-04-12 01:12:00,
2013-04-11 18:33:00,51.0,33.0,-100.00,North,1,9.0,15.0,50,0.00,,,0.00,321.000000,,2013-04-12 01:33:00,
2013-04-11 18:42:00,51.0,33.0,-100.00,North,1,9.0,15.0,50,0.00,,,0.00,321.000000,,2013-04-12 01:42:00,
2013-04-11 18:52:00,51.0,33.0,-100.00,North,1,9.0,15.0,50,0.00,,,0.00,321.000000,,2013-04-12 01:52:00,
2013-04-11 19:02:00,51.0,33.0,-100.00,North,1,9.0,15.0,50,0.00,,,0.00,321.000000,,2013-04-12 02:02:00,
2013-04-11 19:12:00,51.0,33.0,-100.00,North,1,9.0,15.0,50,0.00,,,0.00,321.000000,,2013-04-12 02:12:00,
2013-04-11 19:42:00,45.0,37.0,-100.00,North,1,8.0,12.0,73,0.00,,,0.00,83.000000,,2013-04-12 02:42:00,
2013-04-11 19:52:00,45.0,37.0,-100.00,North,1,8.0,12.0,73,0.00,,,0.00,83.000000,,2013-04-12 02:52:00,
2013-04-11 20:11:00,45.0,37.0,-100.00,North,1,8.0,12.0,73,0.00,,,0.00,83.000000,,2013-04-12 03:11:00,
2013-04-11 20:43:00,46.0,33.0,-100.00,North,2,5.0,9.0,61,0.00,,,0.00,3.000000,,2013-04-12 03:43:00,
2013-04-11 20:53:00,46.0,33.0,-100.00,North,2,5.0,9.0,61,0.00,,,0.00,3.000000,,2013-04-12 03:53:00,
2013-04-11 21:02:00,46.0,33.0,-100.00,North,2,5.0,9.0,61,0.00,,,0.00,3.000000,,2013-04-12 04:02:00,
2013-04-11 21:13:00,46.0,33.0,-100.00,North,2,5.0,9.0,61,0.00,,,0.00,3.000000,,2013-04-12 04:13:00,
2013-04-11 21:33:00,45.0,38.0,-100.00,North,2,3.0,8.0,76,0.00,,,0.00,2.000000,,2013-04-12 04:33:00,
2013-04-11 21:43:00,45.0,38.0,-100.00,North,2,3.0,8.0,76,0.00,,,0.00,2.000000,,2013-04-12 04:43:00,
2013-04-11 21:53:00,45.0,38.0,-100.00,North,2,3.0,8.0,76,0.00,,,0.00,2.000000,,2013-04-12 04:53:00,
2013-04-11 22:02:00,45.0,38.0,-100.00,North,2,3.0,8.0,76,0.00,,,0.00,2.000000,,2013-04-12 05:02:00,
2013-04-11 22:11:00,45.0,38.0,-100.00,North,2,3.0,8.0,76,0.00,,,0.00,2.000000,,2013-04-12 05:11:00,
2013-04-11 22:32:00,44.0,31.0,-100.00,North,2,5.0,7.0,59,0.00,,,0.00,2.000000,,2013-04-12 05:32:00,
2013-04-11 22:42:00,44.0,31.0,-100.00,North,2,5.0,7.0,59,0.00,,,0.00,2.000000,,2013-04-12 05:42:00,
2013-04-11 22:52:00,44.0,31.0,-100.00,North,2,5.0,7.0,59,0.00,,,0.00,2.000000,,2013-04-12 05:52:00,
2013-04-11 23:02:00,44.0,31.0,-100.00,North,2,5.0,7.0,59,0.00,,,0.00,2.000000,,2013-04-12 06:02:00,
2013-04-11 23:12:00,44.0,31.0,-100.00,North,2,5.0,7.0,59,0.00,,,0.00,2.000000,,2013-04-12 06:12:00,
2013-04-11 23:32:00,47.0,31.0,-100.00,North,2,8.0,10.0,53,0.00,,,0.00,2.000000,,2013-04-12 06:32:00,
2013-04-11 23:42:00,47.0,31.0,-100.00,North,2,8.0,10.0,53,0.00,,,0.00,2.000000,,2013-04-12 06:42:00,
2013-04-11 23:52:00,47.0,31.0,-100.00,North,2,8.0,10.0,53,0.00,,,0.00,2.000000,,2013-04-12 06:52:00,